TimeCDT,TemperatureF,Dew PointF,Humidity,Sea Level PressureIn,VisibilityMPH,Wind Direction,Wind SpeedMPH,Gust SpeedMPH,PrecipitationIn,Events,Conditions,WindDirDegrees,DateUTC
12:53 AM,48.9,39.0,69,30.31,10.0,North,16.1,-,N/A,,Overcast,360,2013-09-16 05:53:00
1:20 AM,46.4,37.4,71,30.31,10.0,North,13.8,-,N/A,,Scattered Clouds,360,2013-09-16 06:20:00
1:53 AM,46.0,37.9,73,30.31,10.0,North,12.7,-,N/A,,Mostly Cloudy,360,2013-09-16 06:53:00
2:53 AM,46.0,37.9,73,30.32,10.0,North,10.4,-,N/A,,Mostly Cloudy,350,2013-09-16 07:53:00
3:53 AM,45.0,37.9,76,30.32,10.0,NNW,10.4,-,N/A,,Overcast,340,2013-09-16 08:53:00
4:53 AM,44.1,39.0,82,30.34,10.0,NNW,6.9,-,N/A,,Overcast,340,2013-09-16 09:53:00
5:26 AM,42.8,37.4,81,30.34,10.0,NNW,5.8,-,N/A,,Scattered Clouds,330,2013-09-16 10:26:00
5:53 AM,42.1,37.9,85,30.36,10.0,NNW,6.9,-,N/A,,Clear,330,2013-09-16 10:53:00
6:53 AM,42.1,37.9,85,30.38,10.0,North,5.8,-,N/A,,Clear,350,2013-09-16 11:53:00
7:53 AM,45.0,39.0,80,30.39,10.0,North,6.9,-,N/A,,Partly Cloudy,350,2013-09-16 12:53:00
8:53 AM,48.9,41.0,74,30.41,10.0,North,6.9,-,N/A,,Clear,360,2013-09-16 13:53:00
9:53 AM,53.1,43.0,69,30.43,10.0,NE,11.5,18.4,N/A,,Scattered Clouds,40,2013-09-16 14:53:00
10:53 AM,55.0,43.0,64,30.43,10.0,NE,9.2,-,N/A,,Partly Cloudy,50,2013-09-16 15:53:00
11:53 AM,55.9,44.1,64,30.43,10.0,NE,9.2,-,N/A,,Clear,50,2013-09-16 16:53:00
12:53 PM,57.0,43.0,59,30.42,10.0,NE,10.4,-,N/A,,Clear,40,2013-09-16 17:53:00
1:53 PM,57.9,43.0,58,30.41,10.0,Variable,5.8,-,N/A,,Clear,0,2013-09-16 18:53:00
2:53 PM,61.0,43.0,52,30.38,10.0,NE,8.1,-,N/A,,Clear,50,2013-09-16 19:53:00
3:53 PM,61.0,42.1,50,30.38,10.0,NNE,6.9,-,N/A,,Clear,20,2013-09-16 20:53:00
4:53 PM,60.1,42.1,51,30.37,10.0,NNE,4.6,-,N/A,,Clear,30,2013-09-16 21:53:00
5:53 PM,60.1,42.1,51,30.36,10.0,NE,5.8,-,N/A,,Clear,50,2013-09-16 22:53:00
6:53 PM,55.9,43.0,62,30.36,10.0,East,5.8,-,N/A,,Clear,100,2013-09-16 23:53:00
7:53 PM,54.0,42.1,64,30.35,10.0,East,8.1,-,N/A,,Clear,100,2013-09-17 00:53:00
8:53 PM,53.1,42.1,66,30.36,10.0,East,8.1,-,N/A,,Clear,100,2013-09-17 01:53:00
9:53 PM,51.1,39.9,66,30.36,10.0,ESE,4.6,-,N/A,,Clear,120,2013-09-17 02:53:00
10:53 PM,50.0,42.1,74,30.37,10.0,ESE,3.5,-,N/A,,Clear,120,2013-09-17 03:53:00
11:53 PM,44.1,39.9,85,30.37,10.0,Calm,Calm,-,N/A,,Clear,0,2013-09-17 04:53:00